(314398) = 2005 UG200 = 2008 JY23

Discovered at Kitt Peak on 2005-10-25 by Spacewatch.

Orbit

Orbit type: Main Belt

Note: WebGL enabled browser required.

epoch2023-02-25.0
epoch JD2460000.5
perihelion date2023-01-05.70371
perihelion JD2459950.20371
argument of perihelion (°)317.26211
ascending node (°)215.18018
inclination (°)4.82318
eccentricity0.0581511
perihelion distance (AU)2.8109338
Tisserand w.r.t. Jupiter3.3
ΔV w.r.t. Earth (km/sec)10.5
semimajor axis (AU)2.9844847
mean anomaly (°)9.61470
mean daily motion (°/day)0.19116120
aphelion distance (AU)3.158
period (years)5.16
P-vector [x]-0.98992832
P-vector [y]0.14156717
P-vector [z]-0.00081639
Q-vector [x]-0.13302324
Q-vector [y]-0.93212604
Q-vector [z]-0.33681726
absolute magnitude16.79
phase slope0.15
uncertainty0
referenceMPO 745323
observations used182
oppositions12
arc length (days)6412
first opposition used2005
last opposition used2023
residual rms (arc-secs)0.87
perturbers coarse indicatorM-v
perturbers precise indicator003Ek
first observation date used2005-10-01.0
last observation date used2023-04-22.0
computer nameMPCLINUX
JD of orbit computation2456909.108961
perihelion JD uncertainty (days)2.5985E-04
argument of perihelion uncertainty (°)6.8875E-05
ascending node uncertainty (°)4.9036E-05
inclination uncertainty (°)5.4110E-06
eccentricity uncertainty 4.3659E-08
perihelion distance uncertainty (AU)1.2054E-07
Minimum Orbit Intersection Distances (in AU)
for orbit epoch: 2460000.5, reference: E2023-HA3
Mercury2.40644
Venus2.09737
Earth1.81812
Mars1.16539
Jupiter1.81728
Saturn6.07064
Uranus15.6397
Neptune26.7201

Observations

188 total observations over interval: 2005 10 01.39473 – 2023 04 22.336512
These data are available for download (format description).

Date (UT) J2000 RA J2000 Dec Magn Location Ref
2005 10 01.39473 03 39 44.38 +18 43 49.7 22.5 V G96 – Mt. Lemmon Survey MPS 254506
2005 10 01.40152 03 39 44.28 +18 43 48.8 21.2 V G96 – Mt. Lemmon Survey MPS 254506
2005 10 01.40826 03 39 44.17 +18 43 48.3 21.8 V G96 – Mt. Lemmon Survey MPS 254506
2005 10 01.41506 03 39 44.06 +18 43 46.9 21.1 V G96 – Mt. Lemmon Survey MPS 254506
2005 10 25.31162 03 28 54.04 +17 29 52.3 21.6 V 691 – Steward Observatory, Kitt Peak-Spacewatch MPS 149824
2005 10 25.32884 03 28 53.30 +17 29 47.7 21.0 V 691 – Steward Observatory, Kitt Peak-Spacewatch MPS 149824
2005 10 25.34614 03 28 52.59 +17 29 44.1 21.2 V 691 – Steward Observatory, Kitt Peak-Spacewatch MPS 149824
2005 10 28.30980 03 26 46.93 +17 17 34.5 21.1 V G96 – Mt. Lemmon Survey MPS 149824
2005 10 28.31657 03 26 46.57 +17 17 32.7 20.9 V G96 – Mt. Lemmon Survey MPS 149824
2005 10 28.32348 03 26 46.32 +17 17 31.3 21.5 V G96 – Mt. Lemmon Survey MPS 149824
2005 10 28.33028 03 26 45.96 +17 17 29.5 20.8 V G96 – Mt. Lemmon Survey MPS 149824
2005 10 29.26190 03 26 04.99 +17 13 33.2 21.1 V 691 – Steward Observatory, Kitt Peak-Spacewatch MPS 254506
2005 10 29.28044 03 26 04.18 +17 13 28.9 21.1 V 691 – Steward Observatory, Kitt Peak-Spacewatch MPS 254506
2005 10 29.29775 03 26 03.33 +17 13 24.9 21.0 V 691 – Steward Observatory, Kitt Peak-Spacewatch MPS 254506
2008 05 07.36336 15 45 13.26 -17 27 21.6 21.0 V 691 – Steward Observatory, Kitt Peak-Spacewatch MPS 249882
2008 05 07.38103 15 45 12.39 -17 27 17.1 20.9 V 691 – Steward Observatory, Kitt Peak-Spacewatch MPS 249882
2008 05 07.39635 15 45 11.65 -17 27 12.8 21.6 V 691 – Steward Observatory, Kitt Peak-Spacewatch MPS 249882
2008 05 11.33300 15 42 04.27 -17 10 30.4   691 – Steward Observatory, Kitt Peak-Spacewatch MPS 249882
2008 05 11.35069 15 42 03.41 -17 10 25.9   691 – Steward Observatory, Kitt Peak-Spacewatch MPS 249882
2008 05 11.36837 15 42 02.49 -17 10 21.8   691 – Steward Observatory, Kitt Peak-Spacewatch MPS 249882
2008 06 07.24261 15 21 41.96 -15 24 22.1 21.2 V 691 – Steward Observatory, Kitt Peak-Spacewatch MPS 254506
2008 06 07.26027 15 21 41.31 -15 24 18.9 21.1 V 691 – Steward Observatory, Kitt Peak-Spacewatch MPS 254506
2008 06 07.27792 15 21 40.58 -15 24 15.0 21.2 V 691 – Steward Observatory, Kitt Peak-Spacewatch MPS 254506
2010 10 08.398942 02 36 53.376 +15 34 25.59 21.97 w F51 – Pan-STARRS 1, Haleakala MPS 365557
2010 10 08.417089 02 36 52.718 +15 34 21.31 21.82 w F51 – Pan-STARRS 1, Haleakala MPS 365557
2010 10 08.435334 02 36 52.022 +15 34 16.91 21.79 w F51 – Pan-STARRS 1, Haleakala MPS 365557
2010 10 08.454401 02 36 51.305 +15 34 12.22 21.94 w F51 – Pan-STARRS 1, Haleakala MPS 365557
2010 10 28.35751 02 22 31.04 +13 57 54.9 20.4 V G96 – Mt. Lemmon Survey MPS 351226
2010 10 28.36271 02 22 30.72 +13 57 53.0 20.5 V G96 – Mt. Lemmon Survey MPS 351226
2010 10 28.36789 02 22 30.50 +13 57 51.0 20.8 V G96 – Mt. Lemmon Survey MPS 351226
2010 10 28.37311 02 22 30.25 +13 57 49.6 21.1 V G96 – Mt. Lemmon Survey MPS 351226
2010 11 07.347115 02 14 38.716 +13 04 20.18 21.35 g F51 – Pan-STARRS 1, Haleakala MPS 365557
2010 11 07.358392 02 14 38.189 +13 04 16.80 21.66 g F51 – Pan-STARRS 1, Haleakala MPS 365557
2010 11 11.19434 02 11 44.66 +12 44 11.2 20.9 V G96 – Mt. Lemmon Survey MPS 355359
2010 11 11.20069 02 11 44.34 +12 44 08.7 20.9 V G96 – Mt. Lemmon Survey MPS 355359
2010 11 11.20700 02 11 44.08 +12 44 07.6 20.8 V G96 – Mt. Lemmon Survey MPS 355359
2010 11 11.21337 02 11 43.76 +12 44 05.2 20.9 V G96 – Mt. Lemmon Survey MPS 355359
2010 11 28.14212 02 01 12.36 +11 27 27.6 22.3 V G96 – Mt. Lemmon Survey MPS 358914
2010 11 28.14880 02 01 12.14 +11 27 26.2 21.0 V G96 – Mt. Lemmon Survey MPS 358914
2010 11 28.15544 02 01 11.92 +11 27 24.5 21.9 V G96 – Mt. Lemmon Survey MPS 358914
2010 11 28.16216 02 01 11.74 +11 27 23.0 21.7 V G96 – Mt. Lemmon Survey MPS 358914
2012 01 15.54646 08 21 55.284 +11 58 51.88 20.6 i F51 – Pan-STARRS 1, Haleakala MPS 407721
2012 01 15.55914 08 21 54.620 +11 58 53.28 20.5 i F51 – Pan-STARRS 1, Haleakala MPS 407721
2012 01 20.38696 08 17 49.09 +12 10 20.2 20.4 V G96 – Mt. Lemmon Survey MPS 408800
2012 01 20.39505 08 17 48.62 +12 10 21.4 20.8 V G96 – Mt. Lemmon Survey MPS 408800
2012 01 20.40351 08 17 48.19 +12 10 22.6 20.8 V G96 – Mt. Lemmon Survey MPS 408800
2012 01 20.41170 08 17 47.76 +12 10 24.0 20.8 V G96 – Mt. Lemmon Survey MPS 408800
2012 01 27.34348 08 11 48.69 +12 29 35.3 20.4 V G96 – Mt. Lemmon Survey MPS 410159
2012 01 27.34810 08 11 48.44 +12 29 36.2 20.5 V G96 – Mt. Lemmon Survey MPS 410159
2012 01 27.35278 08 11 48.19 +12 29 37.0 20.6 V G96 – Mt. Lemmon Survey MPS 410159
2012 02 26.26156 07 51 46.26 +14 03 34.8 21.7 V G96 – Mt. Lemmon Survey MPS 416093
2012 02 26.26843 07 51 46.04 +14 03 35.7 21.7 V G96 – Mt. Lemmon Survey MPS 416093
2012 02 26.27544 07 51 45.86 +14 03 36.5 21.8 V G96 – Mt. Lemmon Survey MPS 416093
2012 02 26.28230 07 51 45.72 +14 03 38.3 21.3 V G96 – Mt. Lemmon Survey MPS 416093
2013 04 22.30692 14 41 22.23 -15 10 47.7 19.9 V G96 – Mt. Lemmon Survey MPS 465480
2013 04 22.31242 14 41 22.05 -15 10 46.0 20.9 V G96 – Mt. Lemmon Survey MPS 465480
2013 04 22.31786 14 41 21.69 -15 10 44.5 20.6 V G96 – Mt. Lemmon Survey MPS 465480
2013 04 22.32339 14 41 21.51 -15 10 42.4 20.8 V G96 – Mt. Lemmon Survey MPS 465480
2013 04 29.35319 14 35 56.54 -14 33 26.3 20.0 V G96 – Mt. Lemmon Survey MPS 466788
2013 04 29.35918 14 35 56.18 -14 33 24.3 20.6 V G96 – Mt. Lemmon Survey MPS 466788
2013 04 29.36522 14 35 56.00 -14 33 21.5 20.7 V G96 – Mt. Lemmon Survey MPS 466788
2013 04 29.37132 14 35 55.64 -14 33 20.0 20.7 V G96 – Mt. Lemmon Survey MPS 466788
2013 05 07.34532 14 29 43.80 -13 50 23.3 20.8 V G96 – Mt. Lemmon Survey MPS 467432
2013 05 07.35236 14 29 43.47 -13 50 21.0 20.3 V G96 – Mt. Lemmon Survey MPS 467432
2013 05 07.35957 14 29 43.11 -13 50 19.2 20.4 V G96 – Mt. Lemmon Survey MPS 467432
2013 05 09.40634 14 28 10.427 -13 39 28.59 20.7 w F51 – Pan-STARRS 1, Haleakala MPS 467432
2013 05 09.42032 14 28 09.784 -13 39 24.17 20.7 w F51 – Pan-STARRS 1, Haleakala MPS 467432
2013 05 09.43431 14 28 09.120 -13 39 19.73 20.7 w F51 – Pan-STARRS 1, Haleakala MPS 467432
2013 05 09.44827 14 28 08.466 -13 39 15.32 20.7 w F51 – Pan-STARRS 1, Haleakala MPS 467432
2013 05 13.30677 14 25 19.27 -13 19 20.9 20.2 V G96 – Mt. Lemmon Survey MPS 468599
2013 05 13.31259 14 25 19.05 -13 19 18.9 20.0 V G96 – Mt. Lemmon Survey MPS 468599
2013 05 13.31845 14 25 18.76 -13 19 17.0 20.8 V G96 – Mt. Lemmon Survey MPS 468599
2013 05 13.32460 14 25 18.51 -13 19 15.6 20.0 V G96 – Mt. Lemmon Survey MPS 468599
2014 07 02.49647 20 55 55.196 -10 14 32.46 21.4 w F51 – Pan-STARRS 1, Haleakala MPS 522137
2014 07 02.50994 20 55 54.783 -10 14 33.22 21.7 w F51 – Pan-STARRS 1, Haleakala MPS 522137
2014 07 02.52340 20 55 54.332 -10 14 33.75 21.4 w F51 – Pan-STARRS 1, Haleakala MPS 522137
2014 07 02.53684 20 55 53.879 -10 14 34.38 21.4 w F51 – Pan-STARRS 1, Haleakala MPS 522137
2014 07 04.48920 20 54 51.490 -10 16 10.88 21.3 w F51 – Pan-STARRS 1, Haleakala MPS 522749
2014 07 04.50260 20 54 51.015 -10 16 11.60 21.3 w F51 – Pan-STARRS 1, Haleakala MPS 522749
2014 07 04.52930 20 54 50.092 -10 16 13.17 21.3 w F51 – Pan-STARRS 1, Haleakala MPS 522749
2014 07 28.40678 20 38 01.832 -11 05 31.03 21.1 w F51 – Pan-STARRS 1, Haleakala MPS 525331
2014 07 28.41740 20 38 01.294 -11 05 33.07 21.1 w F51 – Pan-STARRS 1, Haleakala MPS 525331
2014 07 28.42805 20 38 00.777 -11 05 34.94 20.9 w F51 – Pan-STARRS 1, Haleakala MPS 525331
2014 07 28.43870 20 38 00.249 -11 05 36.86 21.1 w F51 – Pan-STARRS 1, Haleakala MPS 525331
2014 08 20.32316 20 20 58.191 -12 22 29.08 21.3 w F51 – Pan-STARRS 1, Haleakala MPS 527923
2014 08 20.33552 20 20 57.711 -12 22 31.63 21.4 w F51 – Pan-STARRS 1, Haleakala MPS 527923
2014 08 20.34782 20 20 57.227 -12 22 34.13 21.5 w F51 – Pan-STARRS 1, Haleakala MPS 527923
2014 08 20.36011 20 20 56.743 -12 22 36.75 21.4 w F51 – Pan-STARRS 1, Haleakala MPS 527923
2015 09 12.44453 01 54 11.595 +13 40 35.44 21.8 w F51 – Pan-STARRS 1, Haleakala MPS 628437
2015 09 12.45489 01 54 11.351 +13 40 33.52 22.1 w F51 – Pan-STARRS 1, Haleakala MPS 628437
2015 09 12.46531 01 54 11.154 +13 40 32.00 21.9 w F51 – Pan-STARRS 1, Haleakala MPS 628437
